This is the latest recevied weather packets stored in our database for station/object SV9TNF-2. If no packets are shown the sender has not sent any weather packets the latest 1 day(s).
| Time | Temp. | Humidity | Pressure | Rain* | Wind** | Luminosity | Snow |
|---|---|---|---|---|---|---|---|
| 1778035218 | 13.89° C | 49% | 1022.4 hPa | 0 mm | 7.6 m/s, 253° | - | - |
| 1778034918 | 13.89° C | 49% | 1022.4 hPa | 0 mm | 8.05 m/s, 205° | - | - |
| 1778034618 | 14.44° C | 48% | 1022.4 hPa | 0 mm | 8.94 m/s, 303° | - | - |
| 1778034317 | 14.44° C | 48% | 1022.4 hPa | 0 mm | 8.94 m/s, 180° | - | - |
| 1778034017 | 14.44° C | 49% | 1022.4 hPa | 0 mm | 8.94 m/s, 197° | - | - |
| 1778033717 | 13.89° C | 50% | 1022.4 hPa | 0 mm | 8.05 m/s, 251° | - | - |
| 1778033117 | 14.44° C | 48% | 1022.4 hPa | 0 mm | 8.49 m/s, 220° | - | - |
| 1778032817 | 14.44° C | 47% | 1022.4 hPa | 0 mm | 7.15 m/s, 163° | - | - |
| 1778032517 | 14.44° C | 49% | 1022.4 hPa | 0 mm | 4.92 m/s, 244° | - | - |
| 1778031916 | 13.89° C | 50% | 1022.4 hPa | 0 mm | 8.49 m/s, 204° | - | - |
| 1778031617 | 13.89° C | 52% | 1022.4 hPa | 0 mm | 8.49 m/s, 195° | - | - |
| 1778031017 | 14.44° C | 50% | 1022.4 hPa | 0 mm | 10.28 m/s, 299° | - | - |
| 1778030716 | 13.89° C | 51% | 1022.4 hPa | 0 mm | 9.83 m/s, 173° | - | - |
| 1778030416 | 13.33° C | 53% | 1022.4 hPa | 0 mm | 7.6 m/s, 226° | - | - |
| 1778030116 | 13.89° C | 52% | 1022.4 hPa | 0 mm | 10.28 m/s, 209° | - | - |
| 1778029816 | 13.33° C | 53% | 1022.4 hPa | 0 mm | 10.28 m/s, 199° | - | - |
| 1778029516 | 13.33° C | 53% | 1022.4 hPa | 0 mm | 6.26 m/s, 195° | - | - |
| 1778029216 | 13.33° C | 54% | 1022.4 hPa | 0 mm | 7.6 m/s, 149° | - | - |
| 1778028915 | 13.33° C | 54% | 1022.4 hPa | 0 mm | 4.92 m/s, 226° | - | - |
| 1778028616 | 13.89° C | 52% | 1022.4 hPa | 0 mm | 8.05 m/s, 176° | - | - |
| 1778028316 | 13.89° C | 53% | 1022.4 hPa | 0 mm | 8.94 m/s, 217° | - | - |
| 1778028015 | 13.89° C | 53% | 1022.4 hPa | 0 mm | 8.94 m/s, 160° | - | - |
| 1778027415 | 13.33° C | 54% | 1022.4 hPa | 0 mm | 9.83 m/s, 166° | - | - |
| 1778027115 | 13.33° C | 54% | 1022.4 hPa | 0 mm | 10.28 m/s, 181° | - | - |
| 1778026815 | 13.89° C | 53% | 1022.4 hPa | 0 mm | 5.81 m/s, 258° | - | - |
* Rain latest hour (hover to see other rain measurements)
** Current wind speed in m/s (hover to see current wind gust speed)